Hoquiam, WA
on Monday, December 31, 2012

Monday
Previous Day Next Day
Daily Summary
 ActualAverageRecord
Temperature
Mean Temperature °F 42°F  
Max Temperature 37°F 46°F 57°F (1963)
Min Temperature 32°F 37°F 16°F (1978)
Degree Days
Heating Degree Days 30 23  
Month to date heating degree days 729  
Cooling Degree Days 0 0  
Month to date cooling degree days 0  
Year to date cooling degree days 23  
Moisture
Dew Point 34°F   
Average Humidity 95    
Maximum Humidity 100    
Minimum Humidity 86    
Precipitation
Precipitation 0.16 in 0.31 in 2.52 in (1996)
Month to date precipitation 9.96  
Year to date precipitation 67.55  
Wind
Wind Speed 8 mph   
Max Wind Speed 13 mph   
Max Gust Speed 17 mph   
Visibility 8 miles   
Events Rain   

Key: T is trace of precipitation, MM is missing value
Source: NWS Daily Summary
Time(PST)TemperatureDew PointHumidity Pressure Visibility Wind DirectionWind SpeedGust SpeedPrecipitationEvents Conditions
12:53 AM 35.1°F 34.0°F 96% 30.28 in 8.0 miles ENE 8.1 mph - N/A   Clear
1:53 AM 35.1°F 34.0°F 96% 30.28 in 8.0 miles ENE 8.1 mph - N/A   Scattered Clouds
2:53 AM 34.0°F 33.1°F 96% 30.27 in 8.0 miles ENE 9.2 mph - N/A   Mostly Cloudy
3:53 AM 35.1°F 34.0°F 96% 30.25 in 7.0 miles ENE 8.1 mph - N/A   Mostly Cloudy
4:53 AM 35.1°F 34.0°F 96% 30.24 in 9.0 miles ENE 6.9 mph - N/A   Overcast
5:53 AM 36.0°F 34.0°F 93% 30.24 in 10.0 miles NE 5.8 mph - N/A   Overcast
6:53 AM 37.0°F 33.1°F 86% 30.25 in 10.0 miles NE 11.5 mph - N/A   Overcast
7:53 AM 36.0°F 34.0°F 93% 30.26 in 10.0 miles ENE 8.1 mph - N/A   Overcast
8:53 AM 36.0°F 34.0°F 93% 30.27 in 10.0 miles ENE 8.1 mph - N/A   Overcast
9:46 AM 35.6°F 33.8°F 93% 30.28 in 10.0 miles ENE 4.6 mph - 0.00 in   Overcast
9:53 AM 36.0°F 34.0°F 93% 30.30 in 8.0 miles NE 6.9 mph - 0.01 in Rain Light Rain
10:08 AM 35.6°F 33.8°F 93% 30.29 in 7.0 miles ENE 4.6 mph - 0.01 in Rain Light Rain
10:15 AM 35.6°F 33.8°F 93% 30.29 in 6.0 miles ENE 5.8 mph - 0.02 in Rain Light Rain
10:24 AM 35.6°F 33.8°F 93% 30.29 in 6.0 miles ENE 8.1 mph - 0.03 in Rain Light Rain
10:53 AM 36.0°F 34.0°F 93% 30.31 in 6.0 miles ENE 8.1 mph - 0.06 in Rain Light Rain
11:15 AM 35.6°F 33.8°F 93% 30.30 in 6.0 miles ENE 8.1 mph - 0.02 in Rain Light Rain
11:39 AM 35.6°F 33.8°F 93% 30.30 in 5.0 miles ENE 10.4 mph - 0.03 in Rain Light Rain
11:53 AM 35.1°F 34.0°F 96% 30.31 in 5.0 miles ENE 9.2 mph - 0.05 in Rain Light Rain
12:28 PM 35.6°F 33.8°F 93% 30.30 in 6.0 miles ENE 5.8 mph - 0.02 in Rain Light Rain
12:43 PM 35.6°F 35.6°F 100% 30.30 in 8.0 miles ENE 5.8 mph - 0.02 in Rain Light Rain
12:53 PM 36.0°F 35.1°F 97% 30.31 in 8.0 miles ENE 5.8 mph - 0.03 in Rain Light Rain
1:07 PM 35.6°F 35.6°F 100% 30.29 in 8.0 miles ENE 4.6 mph - 0.00 in Rain Light Rain
1:27 PM 37.4°F 35.6°F 93% 30.29 in 9.0 miles ENE 6.9 mph - 0.01 in   Overcast
1:53 PM 37.0°F 35.1°F 93% 30.30 in 8.0 miles ENE 9.2 mph - 0.01 in   Overcast
2:53 PM 37.0°F 35.1°F 93% 30.30 in 10.0 miles ENE 11.5 mph - N/A   Overcast
3:53 PM 37.0°F 35.1°F 93% 30.33 in 10.0 miles ENE 9.2 mph - N/A   Mostly Cloudy
4:10 PM 37.4°F 35.6°F 93% 30.33 in 10.0 miles NE 9.2 mph - N/A   Overcast
4:53 PM 37.0°F 35.1°F 93% 30.35 in 10.0 miles NE 9.2 mph - N/A   Overcast
5:03 PM 37.4°F 35.6°F 93% 30.34 in 10.0 miles NE 8.1 mph - N/A   Overcast
5:53 PM 37.4°F 35.6°F 93% 30.35 in 10.0 miles ENE 5.8 mph - N/A   Overcast
6:29 PM 35.6°F 35.6°F 100% 30.36 in 10.0 miles NNE 3.5 mph - N/A   Overcast
6:36 PM 35.6°F 35.6°F 100% 30.36 in 10.0 miles Calm Calm - N/A   Overcast
6:53 PM 36.0°F 34.0°F 93% 30.38 in 10.0 miles North 4.6 mph - N/A   Overcast
7:53 PM 35.6°F 33.8°F 93% 30.38 in 10.0 miles ENE 6.9 mph - N/A   Scattered Clouds
8:14 PM 33.8°F 33.8°F 100% 30.38 in 10.0 miles ENE 8.1 mph - N/A   Scattered Clouds
8:36 PM 33.8°F 33.8°F 100% 30.38 in 5.0 miles ENE 12.7 mph - N/A   Mostly Cloudy
8:53 PM 34.0°F 33.1°F 96% 30.40 in 6.0 miles ENE 4.6 mph 17.3 mph N/A   Mostly Cloudy
9:08 PM 33.8°F 33.8°F 100% 30.39 in 10.0 miles ENE 6.9 mph - N/A   Scattered Clouds
9:53 PM 33.8°F 30.2°F 87% 30.41 in 9.0 miles ENE 5.8 mph - N/A   Clear
10:53 PM 33.1°F 32.0°F 96% 30.43 in 7.0 miles NE 8.1 mph - N/A   Clear
11:48 PM 32.0°F 32.0°F 100% 30.43 in 3.0 miles ENE 6.9 mph - N/A   Scattered Clouds
11:51 PM 32.0°F 32.0°F 100% 30.43 in 2.5 miles ENE 6.9 mph - N/A   Mostly Cloudy
11:53 PM 33.1°F 32.0°F 96% 30.44 in 2.0 miles ENE 5.8 mph - N/A   Mostly Cloudy
Moon Phase
Dec. 31 Jan. 04 Jan. 11 Jan. 18 Jan. 26
Sunrise:08:01 AM (PST) Moon Rise:08:28 PM (PST)12/31
Sunset:04:36 PM (PST) Moon Set:09:32 AM (PST)12/31

Copyright © 2014 The Weather Underground, Inc.